This is the latest recevied weather packets stored in our database for station/object KS5S. If no packets are shown the sender has not sent any weather packets the latest 10 day(s).
| Time | Temp. | Humidity | Pressure | Rain* | Wind** | Luminosity | Snow |
|---|---|---|---|---|---|---|---|
| 1777992749 | 25° C | 82% | 1003.8 hPa | 0 mm | - | 431 W/m² | - |
| 1777992446 | 24.44° C | 83% | 1003.8 hPa | 0 mm | - | 411 W/m² | - |
| 1777992144 | 24.44° C | 84% | 1003.7 hPa | 0 mm | - | 272 W/m² | - |
| 1777991841 | 25° C | 83% | 1003.8 hPa | 0 mm | - | 372 W/m² | - |
| 1777991538 | 24.44° C | 84% | 1003.7 hPa | 0 mm | - | 410 W/m² | - |
| 1777991235 | 24.44° C | 85% | 1003.7 hPa | 0 mm | - | 357 W/m² | - |
| 1777990932 | 24.44° C | 84% | 1003.7 hPa | 0 mm | - | 345 W/m² | - |
| 1777990630 | 23.89° C | 86% | 1003.3 hPa | 0 mm | - | 375 W/m² | - |
| 1777990327 | 23.89° C | 86% | 1003.5 hPa | 0 mm | - | 283 W/m² | - |
| 1777990023 | 23.89° C | 86% | 1003.4 hPa | 0 mm | - | 215 W/m² | - |
| 1777989720 | 23.89° C | 87% | 1003.4 hPa | 0 mm | - | 246 W/m² | - |
| 1777989416 | 23.33° C | 87% | 1003.3 hPa | 0 mm | - | 208 W/m² | - |
| 1777989113 | 23.33° C | 87% | 1003.7 hPa | 0 mm | - | 182 W/m² | - |
| 1777988808 | 23.33° C | 87% | 1003.4 hPa | 0 mm | - | 186 W/m² | - |
| 1777988506 | 23.33° C | 87% | 1003.4 hPa | 0 mm | - | 204 W/m² | - |
| 1777988203 | 23.33° C | 87% | 1003.5 hPa | 0 mm | - | 174 W/m² | - |
| 1777987899 | 23.33° C | 88% | 1003.7 hPa | 0 mm | - | 189 W/m² | - |
| 1777987595 | 23.33° C | 88% | 1003.4 hPa | 0 mm | - | 161 W/m² | - |
| 1777987293 | 23.33° C | 88% | 1003.3 hPa | 0 mm | - | 179 W/m² | - |
| 1777986990 | 22.78° C | 88% | 1003.5 hPa | 0 mm | - | 157 W/m² | - |
| 1777986687 | 22.78° C | 89% | 1003.1 hPa | 0 mm | - | 166 W/m² | - |
| 1777986386 | 22.78° C | 90% | 1003.3 hPa | 0 mm | - | 135 W/m² | - |
| 1777986084 | 22.22° C | 90% | 1003.5 hPa | 0 mm | - | 127 W/m² | - |
| 1777985780 | 22.22° C | 90% | 1003.7 hPa | 0 mm | - | 113 W/m² | - |
| 1777985477 | 22.22° C | 91% | 1003.5 hPa | 0 mm | - | 94 W/m² | - |
* Rain latest hour (hover to see other rain measurements)
** Current wind speed in m/s (hover to see current wind gust speed)